Location: Austin
(30.3000°N, 97.7500°W)
Time: 05:50:32
(UTC-05:00)

Lacrosse 5 rocket - Pass Details

Date: 16 June 2025
Orbit: 419 x 513 km, 57.0° (Epoch: 08 July)

Event Time Altitude Azimuth Distance (km) Brightness Sun altitude
Exits shadow 04:40:40 20° 151° (SSE) 1,202 2.9 -19.8°
Maximum altitude 04:42:00 25° 120° (ESE) 1,068 2.9 -19.6°
Drops below altitude 10° 04:45:13 10° 65° (ENE) 1,735 4.9 -19.1°
Sets 04:47:42 0° 52° (NE) 2,627 6.5 -18.7°
